Location: Unspecified
(47.9110°N, 14.3980°E)
Time: 04:48:27
(UTC+00:00)

Cosmos 1536 - Pass Details

Date: 06 August 2020
Orbit: 541 x 557 km, 82.5° (Epoch: 23 September)

Event Time Altitude Azimuth Distance (km) Brightness Sun altitude
Exits shadow 22:43:38 53° 321° (NW) 679 3.4 -25.5°
Drops below altitude 10° 22:47:02 10° 3° (N) 1,823 6.5 -25.6°
Sets 22:49:13 0° 7° (N) 2,719 7.6 -25.6°
